Theta_e
309 309 310 310 310 310 310 310 310 310 310 310 311 311 312 311 311 311 310 311 311 313 316 318 320 320 320 320 320 321 321 320 319 319 318 319 319 317 316 316 316 315 316 318 320 319 318 318 317 317 317 318 320 321 320 319 317 315 315 314 314 315 316 317 317 317 317 318 317 317 319 320 319 318 316 314 313 313 312 311 312 312 312 311 311 311 311 311 311 310 310 310 310 310 310 309 308 308 308 308 308 307 307
308 308 308 308 308 308 309 310 310 310 310 311 312 312 312 312 312 311 310 310 311 312 315 316 316 316 317 319 320 321 321 321 320 319 319 319 320 319 319 318 318 316 316 318 321 321 320 319 319 319 319 319 319 320 319 316 313 312 312 312 313 315 316 318 318 319 318 318 318 319 319 319 318 317 316 314 313 313 311 311 311 311 311 311 311 309 309 308 308 308 308 309 308 308 309 309 307 305 305 306 306 306 306
308 309 309 309 309 309 309 309 310 310 310 311 312 313 313 313 313 312 311 310 310 311 313 313 313 313 315 317 318 318 320 320 320 319 318 318 318 318 319 319 319 317 317 319 321 320 319 319 319 318 317 318 320 317 315 311 308 308 310 312 313 313 314 315 315 315 315 316 317 318 317 317 317 317 315 313 312 312 310 309 309 310 309 309 308 306 306 307 307 308 307 307 306 306 306 306 305 304 303 303 304 305 305
307 308 308 308 308 309 309 309 309 310 310 311 312 314 314 314 314 315 314 312 311 311 311 310 309 310 312 315 317 316 315 314 313 313 312 312 312 314 315 315 315 313 315 318 319 321 320 319 317 314 311 310 309 308 308 307 307 308 310 311 311 310 311 311 311 311 312 313 315 315 315 315 315 314 313 312 311 311 309 308 308 308 309 308 306 305 306 306 306 305 304 304 303 304 304 303 304 303 302 303 303 304 304
306 306 307 307 307 308 308 308 309 310 311 311 313 314 315 315 316 317 315 314 312 311 310 309 309 309 312 315 317 315 311 310 310 309 309 309 310 310 310 310 310 310 312 314 316 319 319 318 316 311 309 308 309 310 309 308 308 308 309 312 314 316 314 311 308 309 310 311 312 313 313 313 312 311 310 310 309 309 307 307 307 308 308 305 303 303 303 303 303 303 302 301 301 301 302 303 303 303 303 302 303 303 303
304 305 305 306 306 306 308 308 309 310 312 313 313 314 315 316 317 316 313 312 312 310 310 310 309 309 309 310 311 310 309 310 310 309 309 309 309 309 309 309 310 310 309 310 311 310 311 312 312 309 308 308 309 310 310 309 308 309 313 316 317 315 311 309 308 309 311 311 311 311 311 310 310 310 309 309 308 308 307 305 305 306 306 305 304 303 302 302 302 302 302 301 301 301 301 301 301 301 301 301 302 302 303
303 304 304 305 305 306 307 308 309 310 312 313 313 314 315 315 314 311 311 311 312 313 312 310 309 309 309 309 309 309 309 309 310 309 309 310 311 310 309 308 309 309 309 308 308 308 308 307 307 307 308 309 309 309 309 308 309 311 315 316 315 311 309 309 310 310 310 309 309 308 308 308 309 308 308 307 307 307 306 305 304 305 305 305 304 302 301 301 300 300 301 301 301 301 301 300 299 299 298 299 299 300 302
303 303 304 304 304 305 306 307 309 311 312 312 312 313 313 312 310 310 311 312 313 312 311 309 307 308 308 308 308 308 309 309 309 308 309 310 311 310 309 309 309 309 309 308 307 307 307 308 308 308 307 307 308 309 309 310 311 313 315 316 316 315 312 310 309 308 308 307 307 308 308 307 307 307 306 306 306 306 305 305 304 304 304 304 303 301 300 300 300 300 299 299 299 299 299 299 298 298 297 297 298 298 300
302 302 303 302 303 303 305 307 309 310 311 312 311 311 310 310 311 311 310 309 308 307 306 306 307 307 307 307 307 308 308 308 308 308 309 310 310 309 309 309 310 309 309 308 307 307 307 307 308 307 306 306 307 308 309 311 313 313 313 313 312 312 310 308 307 307 307 307 307 307 307 307 306 306 305 305 305 304 304 303 303 302 303 302 302 301 301 300 299 298 298 298 298 298 298 298 297 298 298 297 297 297 298
300 301 302 301 302 302 303 305 307 307 307 308 309 308 308 308 307 306 306 305 305 305 305 305 306 306 306 306 307 307 307 307 307 307 308 308 308 307 308 308 308 308 307 307 306 306 306 307 307 307 306 306 306 307 308 308 309 309 309 308 307 306 306 307 307 307 307 307 307 307 307 306 305 304 304 303 303 302 302 301 301 301 302 302 302 301 301 300 298 297 297 297 297 297 298 298 297 297 297 297 297 296 296
301 301 302 302 302 302 302 303 303 304 303 303 303 303 303 303 303 303 303 303 304 304 305 305 305 305 305 306 306 307 307 307 307 307 308 307 307 307 306 305 305 304 304 303 303 302 303 304 305 305 306 306 306 306 307 307 308 308 307 307 307 308 307 307 307 307 307 306 306 305 304 303 302 302 301 301 300 300 300 300 300 301 302 302 301 301 300 299 298 298 297 297 297 297 298 298 298 297 296 296 296 295 295
301 301 301 301 302 302 302 302 301 302 302 302 302 302 302 302 302 303 303 303 303 303 304 304 304 305 305 305 305 305 306 306 306 306 307 306 305 305 303 302 302 301 301 301 302 302 303 304 304 305 305 306 307 307 307 307 307 307 306 307 308 308 308 307 306 305 305 304 303 302 301 301 300 299 299 299 298 298 298 299 300 300 302 301 300 299 298 298 298 298 298 298 298 298 297 298 298 299 297 296 296 295 294
301 301 301 301 302 302 302 301 301 301 302 302 302 302 302 302 302 302 302 302 302 303 303 303 304 304 305 305 305 304 304 304 304 303 304 304 304 303 302 302 301 300 301 301 302 302 303 304 304 304 304 305 306 306 306 306 305 304 305 305 306 306 305 305 303 302 301 301 301 300 300 299 299 298 298 298 298 298 297 298 298 299 300 300 299 298 298 298 298 298 298 298 298 298 297 297 297 299 296 296 296 295 294
301 301 301 301 302 302 302 302 302 302 302 302 302 302 302 302 302 301 301 301 301 301 302 301 301 302 303 304 304 302 302 303 303 303 304 304 304 303 302 302 302 301 303 303 303 302 303 303 303 303 304 305 305 304 305 304 303 303 303 303 304 304 303 302 301 299 299 299 299 299 299 299 299 298 297 297 297 297 297 297 297 298 300 299 298 297 297 297 297 297 297 297 297 297 297 297 297 297 297 296 295 296 294
300 300 301 301 301 301 301 302 302 302 302 302 302 303 303 303 302 302 302 301 301 301 301 301 300 300 301 302 302 301 302 303 304 303 303 303 304 303 302 302 302 302 303 303 303 302 303 303 304 304 305 305 304 303 303 302 302 301 301 302 302 302 302 301 300 298 298 298 298 298 298 298 299 298 297 296 296 296 296 296 296 297 299 299 297 297 296 296 295 295 296 296 296 296 296 296 296 296 296 296 296 295 294
300 301 301 301 301 301 301 301 302 302 302 302 302 302 302 302 302 302 302 302 302 302 302 301 301 301 301 301 300 300 301 302 303 302 302 302 303 304 302 302 303 302 302 302 302 303 304 304 304 303 303 303 302 302 302 301 300 300 300 300 301 301 301 301 301 299 298 298 298 297 298 298 298 298 297 296 296 295 295 296 296 298 299 298 296 296 295 295 295 295 295 295 295 296 296 296 295 295 295 296 297 295 294
300 300 301 301 301 301 301 301 301 301 301 301 301 301 301 301 301 301 302 302 302 302 302 303 302 301 301 301 300 300 300 301 301 301 301 301 301 302 302 302 302 301 301 301 301 303 303 303 303 302 302 301 301 301 301 300 300 299 300 300 300 301 301 302 301 301 299 298 297 297 297 297 297 297 297 296 296 295 295 295 296 299 299 298 296 295 295 295 295 295 295 295 295 295 295 295 295 295 295 295 295 295 294
300 300 300 301 301 301 301 301 301 301 301 301 300 300 300 300 300 301 301 301 301 302 302 303 303 302 301 301 300 299 299 300 300 301 301 300 300 300 301 301 301 301 300 301 301 302 302 302 301 301 301 301 301 301 300 300 300 299 299 300 300 300 301 301 301 300 300 298 297 297 296 296 296 296 295 295 295 295 295 295 296 300 299 297 295 295 295 296 296 295 295 295 295 295 295 294 295 295 295 295 294 294 293
300 300 300 300 301 301 301 301 301 301 301 301 301 301 301 300 300 300 301 301 301 302 302 303 303 302 302 301 300 299 299 299 300 300 300 299 299 299 300 300 300 299 300 300 301 301 301 300 300 300 300 300 299 299 299 299 299 299 298 299 299 300 300 300 300 299 299 298 297 296 296 295 295 295 294 295 295 295 295 295 295 298 297 296 295 295 295 295 295 296 295 295 295 295 295 295 294 294 294 294 293 292 292
300 300 301 301 301 301 301 301 301 301 301 301 301 302 301 301 300 300 300 301 301 301 302 302 303 303 302 301 300 300 299 299 299 299 299 299 299 299 299 299 299 299 300 300 300 299 299 299 298 298 298 298 298 298 298 298 297 298 298 298 299 299 299 299 299 299 299 299 299 297 296 296 295 296 295 295 295 295 295 295 295 296 295 295 295 295 295 295 295 295 295 295 295 295 295 295 294 294 293 292 292 292 293
300 300 301 301 301 301 301 301 301 301 301 301 301 301 301 301 300 300 301 301 301 301 301 302 302 302 302 301 301 300 300 299 299 299 299 298 298 298 298 298 298 299 299 298 298 297 297 297 297 297 297 297 297 297 297 297 297 297 297 298 298 298 298 298 299 298 299 299 299 298 297 296 296 296 296 296 296 296 296 296 296 295 295 295 295 295 295 294 294 295 295 295 295 295 294 294 294 293 292 292 292 293 293
300 300 300 301 301 301 301 301 301 301 301 301 301 301 301 301 301 301 301 301 302 301 301 301 302 302 302 301 301 301 301 301 300 300 300 299 299 299 299 298 298 298 298 297 295 295 296 296 297 297 297 297 296 297 297 297 297 297 296 297 297 298 298 298 299 298 298 298 298 298 298 297 297 297 297 297 296 296 296 296 296 295 295 295 295 295 295 294 294 295 295 296 295 294 294 293 293 293 293 293 292 293 294
299 300 300 300 300 300 300 300 300 301 301 301 301 301 301 301 300 300 301 301 301 301 301 300 301 301 301 301 301 300 301 301 301 300 300 300 300 300 300 299 298 298 298 297 296 296 296 296 296 297 297 297 296 297 297 297 297 297 297 297 298 299 299 299 299 299 298 298 298 299 298 298 298 298 297 296 295 296 295 296 296 296 295 295 295 295 295 295 295 295 296 296 296 295 295 295 294 294 295 294 293 293 294
299 299 299 299 299 299 299 299 300 300 301 301 301 300 300 300 300 300 300 300 300 300 300 299 299 300 300 300 300 300 301 301 301 301 301 301 301 301 300 299 299 299 299 298 298 298 297 296 297 297 298 297 297 297 297 298 298 298 298 298 298 299 299 300 300 300 299 299 299 299 298 298 298 298 297 296 295 295 295 295 296 296 296 296 296 296 297 297 297 296 297 298 298 297 297 296 296 297 297 296 295 295 294
298 298 298 298 298 298 299 300 300 301 301 300 300 300 300 300 300 300 300 299 299 299 299 298 298 299 299 300 300 300 300 300 300 301 301 301 301 301 300 299 299 299 299 299 299 298 298 298 298 299 298 298 298 299 299 299 300 300 299 299 299 299 299 300 301 302 302 301 300 298 298 298 298 298 297 296 296 296 296 296 296 296 296 296 296 297 297 297 298 298 298 299 299 298 297 297 297 297 297 296 295 296 295
296 297 298 298 298 299 299 299 300 300 300 300 300 299 299 299 299 299 299 299 299 298 298 298 298 299 299 299 299 299 299 299 300 300 300 300 300 300 299 299 299 299 299 298 298 296 297 298 299 299 297 297 298 300 300 301 301 301 301 300 300 300 300 300 301 303 303 302 300 298 298 297 297 297 297 296 296 296 296 296 297 296 296 296 296 296 297 298 298 298 299 299 299 298 297 296 296 296 295 295 295 295 295
298 299 299 299 299 299 299 299 299 299 299 299 299 299 299 299 299 299 299 299 298 298 298 298 299 299 299 299 299 299 298 298 299 299 299 299 299 299 299 299 299 299 298 297 296 295 295 297 299 299 299 299 299 300 300 300 300 301 301 301 301 300 300 300 300 301 301 300 299 298 298 298 298 297 298 297 297 297 297 297 296 296 296 296 295 295 296 297 298 297 298 298 298 297 296 295 294 294 294 294 294 295 295
298 299 299 299 299 299 299 299 299 299 299 299 299 299 299 299 299 299 299 299 298 298 298 299 299 299 298 299 299 299 298 298 299 299 298 298 298 298 298 298 298 298 298 298 298 298 298 299 299 300 300 300 300 300 299 299 300 300 301 301 300 300 299 299 299 299 299 299 299 298 299 299 299 298 298 298 298 298 297 297 296 296 296 295 295 296 296 297 297 296 296 296 296 295 294 293 293 293 293 294 294 294 295
298 299 299 299 299 299 299 299 299 299 300 300 299 299 299 299 298 299 298 298 298 298 298 298 298 298 298 299 299 299 298 298 298 298 298 298 298 297 298 298 298 297 298 298 298 298 298 298 298 299 299 299 300 300 299 299 299 299 300 300 299 299 299 299 299 299 299 299 298 298 299 299 299 298 298 298 298 298 297 297 296 296 296 296 296 295 295 295 295 295 295 295 294 293 292 292 292 292 292 293 293 294 294
298 299 299 299 299 299 299 299 299 299 299 299 299 299 299 299 299 299 298 298 298 298 298 298 298 298 298 298 298 298 298 298 298 297 297 297 297 297 297 297 297 297 297 297 298 298 297 297 297 298 298 298 299 300 300 300 300 299 298 298 297 298 299 299 300 300 300 299 299 299 299 299 299 298 297 298 298 298 297 297 297 296 295 295 295 295 294 294 294 293 294 294 293 292 292 291 291 291 291 292 292 293 293
299 299 299 299 299 299 299 299 299 299 299 299 299 299 299 299 299 299 299 298 298 298 298 298 298 297 297 297 297 297 297 297 297 296 297 297 297 297 297 296 296 297 297 297 297 297 297 297 297 297 297 298 298 299 299 299 299 300 299 298 297 297 298 298 299 299 299 300 299 300 300 299 299 299 298 298 298 297 297 296 296 295 295 294 294 294 294 293 293 293 293 293 293 292 291 291 290 291 290 290 291 291 291
300 300 300 300 299 299 299 299 299 299 299 298 298 299 298 298 298 298 298 298 298 298 297 297 297 297 297 297 296 297 297 297 296 296 297 296 296 296 296 296 296 296 295 295 295 295 296 296 296 296 297 297 297 297 298 298 298 299 299 298 298 297 297 297 298 298 299 300 301 301 300 299 299 298 298 297 297 297 296 296 295 295 294 294 294 294 293 293 293 292 293 292 291 291 291 290 290 290 290 289 289 289 290
300 300 299 299 299 299 299 299 299 298 298 298 298 298 298 298 298 298 298 298 297 297 297 296 296 296 296 296 296 297 296 296 296 295 296 296 296 295 296 295 295 295 295 295 294 294 295 295 295 295 296 296 296 297 297 298 298 298 299 299 298 298 297 296 297 298 299 299 300 301 299 298 298 297 297 296 296 296 296 295 295 295 294 294 293 293 293 292 292 292 292 291 291 291 290 290 289 289 288 288 288 287 288
299 299 299 299 298 298 298 298 298 298 297 297 297 297 297 297 297 297 297 296 296 296 296 295 295 295 295 295 295 295 295 295 295 295 295 295 295 294 294 294 294 294 294 294 294 294 294 294 295 295 295 295 296 297 297 297 297 297 297 297 297 297 295 295 296 296 297 297 298 298 297 297 296 296 295 295 295 295 295 294 295 295 294 293 293 292 292 291 291 291 291 291 290 290 289 289 288 287 286 286 285 285 285
299 298 298 298 298 298 297 297 297 297 297 297 297 296 296 296 296 296 295 295 295 295 295 294 294 294 294 294 294 294 294 294 294 294 294 294 294 294 293 293 293 293 293 293 294 294 294 294 295 295 295 296 296 297 297 297 296 295 296 296 296 296 295 295 295 295 295 295 295 295 295 295 295 295 294 294 294 294 294 294 294 294 293 292 292 291 291 290 290 290 290 289 289 289 288 287 286 285 284 283 283 284 284
298 297 297 297 297 297 297 297 297 297 297 297 296 296 296 295 295 295 294 294 294 294 293 293 293 293 293 293 293 293 293 294 293 293 293 293 293 293 293 292 292 292 292 293 293 294 294 295 295 296 296 296 297 297 297 297 296 295 295 295 295 295 295 294 294 294 294 294 294 294 294 294 294 294 294 294 293 293 293 293 293 292 292 291 291 290 290 290 290 289 289 288 288 287 286 286 285 284 283 282 282 282 282
297 297 296 296 296 296 296 296 296 296 296 296 295 295 294 294 294 293 293 293 293 293 292 293 293 293 292 292 292 292 293 293 293 292 292 293 293 293 292 292 292 292 292 293 294 295 295 295 296 296 296 296 296 296 296 296 296 296 295 295 295 295 294 294 294 294 294 294 294 294 295 294 294 294 294 293 293 293 293 292 292 291 290 290 290 290 290 289 289 288 287 287 286 285 285 284 284 283 282 282 282 282 282
296 296 296 296 295 295 295 295 295 295 295 294 294 294 293 293 292 292 292 292 292 292 292 292 292 292 292 292 292 292 292 292 292 292 292 292 292 292 292 292 292 292 293 294 295 295 295 295 296 295 296 295 295 294 295 295 295 295 295 294 294 294 294 294 294 295 295 295 295 295 295 295 294 294 293 292 292 291 291 291 290 290 290 289 289 289 289 288 288 286 285 285 284 283 283 283 283 282 282 281 281 281 281
296 295 295 295 295 295 294 294 294 294 294 293 293 292 292 292 291 291 291 291 291 291 291 291 291 291 291 291 291 292 292 292 292 292 292 292 292 292 291 291 292 292 293 294 295 295 295 295 295 294 294 294 293 293 293 294 294 294 294 294 294 294 294 294 295 295 295 295 295 295 295 294 294 293 292 291 290 290 290 289 289 289 289 288 288 288 287 287 286 285 284 283 283 282 282 282 282 282 281 281 281 281 281
295 295 295 295 294 294 294 294 294 293 293 292 292 291 291 291 290 290 290 290 290 290 291 291 291 291 291 291 291 291 291 291 292 291 292 292 291 291 291 291 292 293 294 294 295 294 294 294 294 293 293 293 292 292 293 293 293 293 293 293 294 294 295 295 295 295 295 295 295 295 294 294 293 292 291 290 289 289 288 288 288 288 287 287 286 286 286 286 285 285 284 283 283 282 282 281 281 281 281 281 281 280 280
294 294 294 294 294 294 293 293 293 292 292 291 290 290 290 290 290 290 290 290 290 290 290 290 290 290 290 290 291 291 291 291 291 291 291 291 291 291 291 292 292 293 294 294 294 294 293 293 292 292 292 292 292 292 292 292 293 293 293 293 294 294 294 294 295 294 294 294 294 294 293 292 291 290 290 289 289 288 287 287 287 287 286 286 285 286 285 285 285 285 284 283 283 282 281 281 280 280 280 280 280 280 280
294 294 294 294 293 293 293 292 292 291 291 290 289 289 289 289 289 289 289 289 289 289 290 290 290 290 290 290 291 291 291 291 291 291 291 291 290 291 291 292 292 293 293 293 293 293 292 292 292 291 291 291 291 291 291 292 293 293 293 293 293 293 293 294 293 293 293 293 293 292 292 291 290 289 289 289 288 287 287 286 286 286 285 285 285 285 284 284 284 284 284 283 283 282 281 280 280 280 279 279 279 279 279
294 293 293 292 292 292 292 291 291 290 290 289 288 288 288 288 288 288 289 289 289 289 289 290 290 290 290 290 290 290 290 291 291 290 290 290 290 291 291 292 292 292 293 292 292 292 291 291 291 290 290 291 291 292 292 293 293 294 293 293 293 293 293 293 292 292 292 292 292 291 290 289 289 289 288 288 288 287 287 286 286 285 285 284 284 284 284 283 283 283 283 283 282 281 280 279 279 279 279 279 278 278 278
293 292 292 292 292 292 291 290 290 289 288 288 288 287 287 288 288 288 288 288 288 289 289 289 289 290 289 289 290 290 290 290 290 290 289 290 290 291 291 291 291 292 292 291 291 291 291 290 290 290 290 290 291 292 293 294 294 294 294 294 293 293 293 292 292 292 292 291 290 290 289 289 288 288 288 287 287 287 286 285 285 285 284 283 283 283 283 282 282 283 282 282 281 279 279 278 278 278 277 277 277 277 277
292 291 291 291 291 290 290 289 289 288 287 287 287 287 287 287 287 288 288 288 288 288 289 289 289 289 289 289 289 289 289 289 289 289 289 289 290 291 291 290 291 291 291 291 290 290 290 290 290 290 290 291 291 292 292 292 293 293 294 293 293 292 292 292 292 291 290 289 289 289 289 288 288 287 287 287 287 286 285 284 284 284 283 282 282 282 282 282 281 281 281 280 280 279 278 277 277 277 277 277 277 277 277
291 291 290 290 290 290 289 288 288 287 287 286 286 287 287 287 287 287 287 288 288 288 288 288 288 288 288 288 288 289 289 289 289 288 289 289 290 291 290 290 290 290 290 290 290 290 290 290 290 290 291 291 291 292 292 292 291 292 291 291 291 291 292 292 291 289 289 288 288 288 288 287 287 287 286 286 285 284 284 283 283 283 282 282 282 281 281 281 281 281 280 279 279 278 278 277 277 276 276 276 276 276 276
290 290 289 289 289 288 288 287 286 286 286 286 286 287 287 287 287 287 287 287 287 287 287 287 287 287 287 288 288 289 289 288 288 288 288 289 290 290 290 289 289 289 289 290 290 290 290 290 290 290 291 291 291 291 291 291 291 291 290 290 290 290 290 289 288 288 288 288 287 287 286 286 285 285 284 284 283 283 282 282 282 282 282 282 281 281 280 280 280 280 279 278 278 277 277 277 277 277 276 275 275 275 275
289 289 288 288 287 287 287 286 286 285 286 286 286 287 287 287 287 287 287 287 287 287 287 286 286 286 287 287 287 288 288 288 288 288 288 289 290 290 289 289 289 289 289 289 289 289 289 289 289 289 290 290 290 290 290 290 290 290 290 289 289 288 287 286 286 286 286 286 285 285 285 284 284 283 283 282 281 281 280 281 281 282 281 280 280 280 279 279 279 278 278 277 276 276 276 276 276 277 276 276 275 275 275
288 288 288 287 286 286 285 285 285 285 285 286 286 286 287 287 287 287 287 286 286 286 286 286 285 286 286 287 287 287 288 288 288 287 288 289 290 290 289 289 289 289 289 289 289 289 289 289 289 289 289 289 289 289 289 288 288 288 288 287 286 285 285 285 285 285 285 285 284 284 284 283 283 282 282 281 280 280 279 280 281 281 280 279 279 280 281 281 279 278 277 276 275 275 275 275 276 276 276 276 275 275 275
287 287 287 286 286 285 285 284 284 285 285 285 286 286 286 286 286 286 286 286 285 285 285 285 285 286 286 286 286 287 288 288 287 287 288 289 290 290 289 289 289 289 289 289 289 289 289 289 288 288 288 288 288 288 288 288 287 287 286 285 284 284 284 284 284 284 284 284 284 284 283 283 282 282 281 280 280 279 280 280 280 279 278 278 279 281 286 286 284 281 279 277 276 275 276 276 277 277 276 276 275 275 275
287 286 286 285 285 284 284 284 284 285 285 285 285 286 286 286 286 286 285 285 285 285 285 285 285 285 286 286 286 287 287 287 287 287 287 288 289 289 290 289 289 289 289 288 288 288 288 288 287 287 287 287 287 286 286 286 285 285 285 284 284 284 284 284 284 283 283 283 283 283 282 282 282 281 281 280 280 279 280 280 279 277 277 279 281 285 288 288 287 286 284 280 277 276 276 276 276 276 276 275 275 275 274
286 285 285 284 284 284 284 284 284 284 285 285 285 285 286 286 286 285 285 285 284 285 285 285 285 285 286 286 286 287 287 287 287 286 287 287 288 289 289 289 288 288 288 288 288 288 287 287 286 286 285 285 285 284 284 284 284 284 284 284 283 283 283 283 283 283 283 283 282 282 282 281 281 281 281 280 280 281 281 279 278 277 277 279 282 288 289 289 288 287 286 284 281 278 277 276 276 275 275 275 274 274 273
285 284 284 284 283 283 283 284 284 284 285 285 285 285 285 285 285 285 284 284 284 284 284 285 285 285 285 286 286 287 287 286 286 286 286 287 287 288 288 288 287 287 287 287 287 286 286 285 285 284 284 284 283 283 284 284 285 284 284 283 283 283 283 282 282 282 282 282 282 281 281 281 281 281 281 281 281 281 280 278 277 277 277 279 283 289 289 289 288 288 287 286 283 279 277 276 275 274 274 274 273 273 273
284 284 283 283 283 283 283 284 284 284 284 285 285 285 285 285 284 284 284 284 284 284 284 284 285 285 285 286 286 286 286 286 286 285 285 285 286 286 286 286 286 286 286 286 286 286 285 285 284 283 283 283 283 284 284 284 284 284 283 283 282 282 282 282 282 282 281 281 281 281 280 280 280 280 281 281 281 280 278 277 277 277 277 280 284 289 289 289 288 288 288 287 285 283 278 275 274 273 273 273 273 272 272
284 283 283 283 283 283 283 284 284 284 285 285 285 285 284 284 284 284 284 284 284 284 284 284 285 285 285 285 286 286 285 285 285 285 285 284 284 284 284 285 285 286 286 286 286 286 285 285 284 283 283 283 284 284 284 284 283 283 282 282 282 281 281 281 281 281 281 280 280 280 280 280 280 280 280 280 280 279 279 278 278 278 278 281 285 289 289 289 288 288 288 287 287 286 279 275 273 272 272 272 272 272 272
284 283 283 283 283 283 283 284 284 285 285 285 285 285 284 284 284 284 284 284 284 284 284 284 284 284 285 285 285 285 285 285 285 285 284 284 284 283 283 284 285 286 286 285 285 285 284 284 284 283 283 283 283 283 283 283 282 282 282 282 281 281 281 281 281 281 280 280 280 280 280 279 280 280 280 280 280 279 279 279 279 279 279 281 284 288 289 289 289 288 288 288 287 287 281 276 273 272 272 272 272 272 272
283 283 283 282 282 283 284 285 285 285 285 285 284 284 284 284 283 284 284 284 284 284 284 284 284 284 284 284 284 285 285 285 285 285 284 284 283 283 283 284 285 286 285 285 284 284 284 284 284 283 283 283 283 283 283 282 282 282 282 282 282 282 282 281 281 281 281 280 280 279 279 279 279 280 280 279 279 278 278 278 279 279 279 281 283 287 288 288 288 288 288 288 287 287 282 277 274 272 272 272 272 272 272
283 282 282 282 283 284 284 285 285 285 284 284 284 283 283 283 283 283 283 283 283 283 283 283 284 284 284 284 284 284 285 285 285 284 284 284 284 283 284 284 285 285 284 284 284 283 284 284 284 284 283 283 282 282 282 282 282 282 283 283 283 283 283 283 283 282 281 280 279 279 279 279 279 279 279 279 279 278 279 279 279 279 279 281 284 287 288 288 288 288 288 288 287 287 282 277 273 272 272 271 271 271 272
283 282 282 283 284 284 285 285 284 284 284 283 283 283 283 283 283 283 283 283 283 283 283 283 283 283 283 284 284 284 285 285 284 284 284 284 284 284 284 285 285 284 284 284 283 283 284 284 284 283 282 282 282 282 283 283 283 284 284 285 285 285 285 284 284 282 281 279 279 279 279 279 279 279 279 279 279 279 279 279 279 279 279 282 285 287 287 287 288 288 288 288 287 287 281 276 273 272 271 271 271 272 273
Wind_Speed
14 14 13 12 11 11 11 12 13 14 15 15 16 15 16 15 15 15 14 11 8 7 7 9 9 7 6 5 4 3 3 3 3 3 3 3 3 3 3 3 2 2 2 1 2 2 3 4 5 5 5 5 5 6 5 4 4 5 4 4 4 3 2 2 3 3 3 3 3 3 3 3 3 3 4 5 6 5 4 3 3 3 3 3 4 4 4 3 2 2 2 2 2 2 3 3 3 3 3 3 3 3 3
15 15 14 14 13 13 13 13 14 15 16 16 16 15 16 16 16 16 14 13 11 9 11 11 10 7 7 7 7 5 4 3 3 3 3 2 2 2 2 2 1 1 1 1 2 3 3 4 4 4 3 3 4 5 6 5 5 4 4 3 3 2 1 2 3 3 4 3 3 3 4 4 4 3 5 6 6 5 5 4 4 3 4 4 4 4 3 2 1 1 1 1 1 1 2 2 2 2 2 2 2 2 2
16 16 16 15 15 15 15 15 15 15 15 14 13 13 15 15 15 14 13 12 12 12 12 10 8 8 9 9 8 7 5 4 3 2 2 1 1 1 0 1 1 2 1 1 2 3 4 5 4 5 4 3 4 4 4 3 2 1 1 1 1 1 0 2 4 5 5 5 5 4 4 4 4 5 5 6 6 6 5 5 4 3 3 3 2 2 2 1 1 1 1 1 1 1 1 2 2 2 2 2 2 2 2
15 15 15 15 15 16 16 16 15 15 13 11 10 12 12 13 12 11 9 10 11 12 11 10 10 10 8 7 7 7 6 5 4 3 3 2 2 1 1 1 2 2 1 1 2 2 4 5 5 6 4 2 1 1 1 1 2 3 3 3 3 3 2 2 4 5 5 5 5 4 4 4 5 7 6 5 5 6 5 4 3 3 2 2 1 2 2 2 2 2 2 2 2 1 1 1 1 2 2 2 2 2 2
14 14 14 14 14 15 15 14 14 14 13 11 10 10 9 9 8 8 7 7 9 10 11 11 10 9 6 5 4 5 6 7 7 5 5 4 3 2 1 0 1 1 1 1 1 2 3 4 6 6 2 1 1 2 3 3 3 4 3 1 1 4 6 4 4 5 6 6 5 5 5 6 6 7 6 5 5 4 3 3 3 3 2 2 2 2 2 2 2 2 2 2 2 1 1 2 2 1 2 2 2 2 2
12 12 11 12 13 13 14 14 13 12 11 10 9 8 7 6 6 5 5 7 9 11 11 10 9 8 7 6 6 6 8 8 8 6 5 4 4 3 2 2 2 2 1 1 1 1 2 3 4 3 1 2 3 3 3 2 1 1 0 0 1 3 5 4 4 5 6 6 6 5 6 6 6 6 5 4 3 2 2 3 3 3 2 1 1 0 0 0 1 1 0 1 1 1 1 1 2 2 2 2 2 2 2
11 12 12 12 13 13 13 13 12 11 11 9 7 7 6 5 4 5 5 7 10 11 9 8 7 8 9 8 8 7 6 7 7 6 5 5 4 4 4 3 2 2 2 2 2 1 1 1 1 2 3 4 4 4 4 3 3 3 3 3 2 2 4 4 3 3 3 4 4 3 4 5 5 4 3 3 2 2 3 3 3 3 1 1 0 0 0 1 1 1 1 1 1 1 0 0 0 2 2 2 2 3 2
11 12 13 13 12 11 11 11 10 9 9 7 5 5 4 4 4 5 6 7 8 7 5 5 6 7 7 7 6 5 5 6 7 6 5 5 5 5 5 4 3 2 2 2 2 1 1 2 3 3 3 4 4 4 3 3 3 3 3 3 3 4 6 6 5 3 3 2 1 1 2 2 2 2 2 2 2 2 1 1 1 1 1 2 1 1 1 1 1 1 1 1 1 1 1 1 1 1 2 2 2 3 3
11 12 12 11 10 9 10 10 9 7 5 4 3 3 3 3 4 5 6 6 6 4 4 4 5 6 6 6 5 5 6 6 6 6 5 5 5 5 5 4 4 4 4 4 3 3 3 3 3 4 4 3 3 3 3 3 3 3 3 4 5 5 5 5 5 4 4 4 3 2 3 3 3 2 1 1 1 2 2 3 3 2 2 2 2 1 1 0 0 0 0 0 0 1 1 1 0 0 1 2 2 2 3
10 11 11 10 9 10 10 10 10 8 6 4 3 3 3 4 5 6 6 6 5 4 4 4 5 5 5 5 5 5 6 6 6 6 5 5 5 4 4 5 5 5 5 4 4 4 4 3 3 3 3 3 3 3 3 3 3 3 3 4 5 5 4 4 4 4 4 3 3 2 2 2 2 2 3 4 5 5 5 5 4 3 3 2 2 1 1 1 1 1 1 1 1 0 1 1 1 1 1 1 1 1 2
10 10 11 10 10 11 10 10 10 9 8 7 6 5 5 5 6 6 5 5 4 4 4 4 4 4 4 4 4 4 5 5 6 6 5 5 4 4 4 4 4 4 3 3 3 3 3 2 2 1 1 2 2 2 2 1 1 2 2 2 3 3 3 3 3 3 3 3 2 2 2 3 3 5 5 6 7 6 4 4 3 3 3 2 2 2 2 2 2 2 2 2 1 0 0 1 1 1 1 1 0 1 2
11 11 10 9 9 10 10 9 8 8 7 6 5 4 5 5 5 4 4 4 3 3 3 3 3 3 3 3 3 3 4 4 5 5 4 4 4 3 3 3 3 2 1 1 1 2 2 2 2 2 1 1 1 1 1 1 1 1 2 2 2 2 2 2 2 2 3 3 4 5 5 5 5 5 5 5 5 4 4 3 3 2 2 2 2 2 2 1 1 1 1 1 1 1 1 1 0 0 1 1 0 1 2
10 10 9 10 10 10 9 8 7 7 7 5 4 3 4 5 5 4 4 4 3 3 3 3 3 2 2 2 2 3 3 3 4 4 4 3 3 2 2 2 2 1 1 0 0 0 1 2 3 3 2 2 1 1 1 2 2 2 2 2 2 2 2 2 3 3 3 4 5 6 5 5 5 4 4 4 4 3 3 3 2 1 1 1 2 1 1 0 1 1 1 1 1 1 1 0 0 1 1 1 1 1 1
9 9 8 9 9 9 7 6 6 5 5 4 3 4 5 5 4 4 4 3 2 2 2 3 3 3 3 3 3 2 3 3 3 3 3 3 2 1 2 2 1 1 1 1 1 1 1 2 3 3 2 2 2 1 2 3 3 3 3 2 2 2 2 2 2 2 3 4 4 4 3 3 3 3 3 2 2 2 2 2 1 1 1 1 1 1 0 0 1 1 1 2 2 2 1 1 0 1 1 2 1 1 1
8 8 7 7 7 6 6 5 4 3 3 3 3 4 4 4 4 4 3 3 2 1 2 2 2 3 3 3 3 3 3 3 3 3 3 2 2 2 1 1 1 1 2 2 1 1 2 2 2 2 2 2 2 2 2 3 3 3 3 3 2 2 2 2 2 2 2 2 2 2 2 2 2 3 2 2 2 2 2 2 1 1 1 1 1 1 1 1 0 0 1 2 2 2 2 1 1 1 1 2 2 2 2
7 6 6 6 6 5 5 4 3 2 2 3 3 3 3 3 3 3 3 3 3 3 3 3 3 4 4 4 4 4 4 4 3 3 3 3 2 2 1 1 1 1 2 2 2 2 2 2 2 2 2 2 2 2 2 2 3 3 3 3 2 2 2 2 2 1 1 1 1 1 1 1 2 2 2 2 2 2 2 2 1 1 1 1 1 1 1 0 0 0 1 1 1 1 1 1 1 1 1 2 3 3 2
5 5 5 5 5 4 3 3 3 3 2 2 2 2 2 2 3 3 3 4 4 4 4 5 5 5 4 4 4 4 4 4 4 4 4 3 3 2 2 2 2 2 2 3 3 2 2 2 2 2 2 2 2 2 2 2 3 3 3 2 2 2 2 2 2 2 1 1 1 1 1 1 1 2 2 2 2 2 2 1 1 1 1 1 0 0 1 1 1 1 1 1 1 1 1 1 1 1 1 1 2 3 2
4 4 4 3 3 2 3 3 3 2 2 2 3 3 3 4 4 4 4 4 5 5 5 6 6 5 5 4 4 4 5 5 4 5 5 4 3 3 3 3 3 3 3 3 3 3 2 2 2 2 2 3 3 2 2 2 3 3 3 2 2 2 2 2 2 2 2 2 2 1 1 1 1 1 1 1 2 1 1 1 1 0 0 0 0 1 1 2 2 2 2 2 2 1 1 1 1 2 2 1 1 2 2
3 2 2 2 2 2 3 3 2 2 2 3 3 4 4 4 4 4 4 5 5 6 6 6 6 6 5 5 6 5 5 5 5 5 5 4 4 3 3 2 2 2 3 3 3 3 3 2 2 3 3 3 3 3 3 3 3 3 3 2 2 2 2 2 2 2 3 2 2 2 2 1 1 0 1 1 1 1 0 0 1 2 2 2 2 2 2 2 2 2 2 2 2 2 2 2 2 2 2 1 1 1 1
2 2 2 2 2 3 3 3 2 2 3 3 4 5 5 5 5 5 6 6 6 7 7 7 7 7 7 7 6 6 5 5 5 6 5 5 5 4 3 3 2 2 2 3 3 3 2 2 2 3 3 4 3 3 3 3 3 3 3 2 2 2 2 2 2 2 2 3 3 3 3 2 2 2 2 2 2 2 2 2 3 3 3 3 3 3 3 3 3 3 3 3 3 3 2 2 2 2 2 1 1 1 1
3 2 3 2 2 2 3 2 2 2 3 4 5 6 6 6 6 7 7 7 7 7 7 8 8 8 7 7 6 6 6 6 7 7 7 6 6 6 5 4 3 3 3 3 3 2 2 3 3 3 3 3 2 2 2 2 2 3 3 2 2 2 2 2 2 2 2 3 4 4 4 4 3 3 4 4 4 4 4 4 4 4 4 4 4 5 5 5 5 4 4 4 4 3 3 3 3 3 3 3 2 2 3
4 4 4 4 3 2 2 2 2 3 4 5 6 6 6 7 7 8 8 7 7 7 7 7 8 7 7 6 6 6 6 7 8 9 8 7 7 7 6 5 4 4 4 3 3 2 3 3 3 2 2 2 2 2 2 2 2 3 3 3 3 3 3 2 2 2 3 3 5 5 6 5 4 3 4 4 5 5 5 4 4 4 5 6 6 6 7 7 7 6 5 5 5 5 5 5 5 5 4 3 3 4 4
5 4 4 3 2 2 1 2 3 4 5 6 6 6 7 7 7 7 7 6 6 6 6 7 7 7 6 6 7 7 8 9 9 9 9 9 9 8 7 6 5 5 5 4 3 3 3 3 3 2 2 2 2 2 2 2 2 2 3 3 3 3 3 3 3 3 3 3 3 4 6 5 4 4 5 6 6 7 7 6 6 7 8 8 8 8 8 8 8 7 6 6 7 7 7 7 7 6 5 4 5 5 5
3 2 1 1 2 3 3 3 4 5 6 6 6 6 6 6 6 6 6 6 7 7 7 7 7 7 7 7 8 9 10 10 10 10 11 10 10 9 8 7 6 6 5 5 4 4 4 4 3 2 2 3 3 3 3 2 2 2 2 3 3 3 4 4 4 3 3 2 2 2 4 5 5 6 7 8 9 9 9 9 9 9 10 9 9 8 9 9 9 9 7 7 6 7 8 8 8 6 6 6 6 6 6
2 3 3 3 3 3 3 4 5 6 6 6 6 6 6 6 6 6 7 7 8 8 7 7 8 8 8 8 9 10 10 10 10 11 11 10 10 10 10 9 8 8 6 6 5 5 5 4 4 3 3 3 3 4 4 3 3 2 2 2 3 3 3 4 4 4 4 3 2 3 4 5 7 9 11 11 11 12 11 11 11 10 10 9 9 8 8 9 9 9 7 6 5 5 6 6 6 6 6 6 6 6 6
3 3 3 4 4 4 5 5 6 6 6 6 6 6 7 7 7 8 8 9 9 8 8 8 8 9 8 9 10 10 10 11 11 11 11 10 9 8 9 9 9 9 8 7 6 5 4 4 4 4 3 3 3 3 4 4 3 3 3 3 3 4 3 4 4 4 5 6 6 7 8 9 10 12 13 13 13 13 12 11 11 10 10 10 9 9 8 8 7 7 6 5 4 4 5 5 6 6 6 6 6 7 6
4 5 5 6 6 6 6 6 6 6 6 7 7 8 9 9 9 9 10 10 10 9 8 9 9 9 8 9 10 11 11 11 11 11 10 10 9 8 8 9 9 9 9 8 7 6 5 5 5 5 4 4 4 3 3 3 3 3 4 4 4 4 3 3 3 3 6 9 11 12 11 11 12 13 13 13 13 12 11 11 11 10 11 11 10 10 9 8 7 7 6 6 5 5 5 5 5 6 6 6 7 8 7
7 6 6 6 7 7 7 7 7 7 8 9 9 10 10 10 10 9 10 10 10 10 10 10 10 9 9 10 10 11 11 11 10 10 10 10 9 9 9 9 9 9 9 9 9 9 8 7 7 6 6 6 6 4 3 3 3 3 3 3 2 3 3 3 3 3 6 8 10 10 10 10 11 11 12 11 10 9 10 10 10 10 12 12 12 11 10 8 8 7 7 6 6 5 6 5 5 5 5 6 7 8 6
7 7 7 7 8 8 8 8 9 9 10 10 11 11 10 10 9 9 9 9 10 10 11 11 11 10 10 10 11 11 11 10 10 10 10 10 10 10 9 8 9 9 9 10 10 10 11 10 9 8 8 9 8 6 5 4 3 2 1 1 1 2 2 3 3 3 4 5 5 6 7 8 8 9 9 8 7 7 8 9 10 11 11 11 11 10 10 9 8 7 6 5 5 6 6 5 5 5 5 6 6 6 6
7 7 8 8 8 8 9 9 10 10 10 10 10 9 9 10 9 9 9 10 10 11 11 11 11 11 11 11 11 11 10 11 11 10 10 10 10 10 9 9 9 10 10 10 10 10 11 11 10 9 11 10 9 8 7 7 5 3 1 1 1 1 2 2 3 4 4 3 3 4 6 7 7 8 7 7 6 6 7 8 10 11 10 10 9 9 9 8 7 7 5 4 4 5 5 4 4 5 6 6 5 5 5
8 8 9 9 9 9 9 10 10 10 10 9 9 10 9 9 10 10 10 11 11 11 10 10 10 11 10 10 9 9 10 10 10 10 9 10 10 9 9 9 10 10 10 10 10 10 11 11 10 10 12 11 10 9 10 11 10 7 4 2 1 1 2 3 4 4 3 3 3 5 6 7 7 7 7 7 7 8 8 9 9 9 9 8 8 8 8 7 7 6 4 4 4 4 4 4 4 5 5 5 5 4 4
9 10 10 10 10 10 10 10 9 9 9 9 9 10 9 9 10 11 11 12 12 11 11 10 9 9 9 8 8 8 9 10 10 10 10 10 10 9 8 8 9 10 11 11 12 12 13 13 12 12 12 11 10 10 12 13 13 12 10 6 3 2 3 4 4 4 3 4 4 6 7 8 8 8 8 8 9 8 8 8 8 7 7 7 6 6 6 6 6 5 4 4 3 3 3 4 4 5 5 4 4 4 3
10 11 11 11 11 11 11 10 10 10 11 11 11 11 10 10 10 11 12 12 12 11 11 10 9 8 8 8 9 10 11 11 11 11 11 11 10 9 9 9 9 10 11 12 12 13 13 14 13 13 12 12 11 10 12 13 14 14 13 11 7 5 5 5 5 5 7 7 7 8 9 9 9 9 8 8 8 7 7 6 6 5 5 4 4 4 4 4 4 4 3 3 2 2 2 3 4 4 4 4 4 4 3
10 10 10 10 10 10 11 11 10 10 10 9 10 10 10 10 11 12 12 12 11 11 11 11 10 10 10 11 11 11 11 11 11 11 11 10 10 10 10 10 10 11 11 12 12 13 13 13 13 13 13 12 12 12 13 13 13 13 13 12 10 8 8 8 9 10 11 12 11 11 11 10 9 8 8 7 7 6 6 6 5 4 3 3 2 2 2 3 3 2 2 1 1 2 2 2 3 4 4 4 4 3 3
10 10 10 10 10 10 10 9 9 9 8 9 9 10 10 11 11 11 11 11 11 11 11 11 10 10 11 11 11 11 11 11 11 11 10 9 9 10 11 11 11 11 11 12 12 12 12 13 13 13 12 13 13 13 13 13 13 13 13 12 10 9 10 11 12 12 12 13 13 12 11 10 9 8 8 7 7 6 5 5 4 2 2 2 1 1 1 2 2 1 1 1 1 1 2 2 2 3 3 3 3 2 2
10 10 10 10 10 9 9 9 9 9 9 9 10 11 11 11 11 10 10 11 11 12 11 11 10 10 10 11 11 11 10 10 10 10 9 9 9 10 10 11 11 11 11 11 12 11 12 12 12 12 12 13 14 14 14 14 13 14 14 12 11 11 12 12 12 11 11 11 11 10 9 9 8 6 5 5 4 3 3 2 2 3 2 2 1 1 1 1 1 1 1 1 1 1 1 1 1 2 2 2 2 2 2
10 10 10 10 9 9 9 9 9 10 10 11 11 11 10 10 10 11 11 11 11 11 11 10 10 10 10 10 10 10 10 9 9 9 9 8 9 9 10 11 11 11 11 11 11 11 12 12 12 12 12 13 14 14 14 13 13 13 13 13 12 12 11 10 9 9 10 9 9 7 7 6 5 4 3 2 2 3 3 3 3 3 3 2 2 2 2 2 2 2 2 1 0 1 1 0 0 1 1 2 2 2 2
10 10 9 9 9 8 8 9 9 9 9 10 10 10 10 10 10 11 11 11 11 10 10 10 10 10 10 10 9 9 8 8 8 8 8 8 8 9 10 10 10 10 11 11 11 11 12 12 12 12 11 12 12 13 12 11 11 11 11 11 10 10 8 7 7 7 8 8 7 5 4 3 2 2 2 3 3 4 4 4 3 3 3 3 3 3 2 2 2 2 2 2 2 1 1 1 1 0 1 1 1 2 3
9 8 8 8 8 7 8 8 9 9 9 9 9 9 9 10 10 11 11 10 10 9 10 10 10 10 10 9 8 8 7 7 7 7 8 9 9 9 10 10 10 10 10 11 11 11 11 11 11 10 9 9 10 10 9 8 7 7 7 7 6 6 5 5 4 5 5 5 4 4 3 2 3 3 4 4 5 5 5 4 4 3 3 3 3 3 2 3 3 3 3 3 3 2 2 2 1 1 1 1 2 2 3
8 7 7 7 7 7 8 9 9 9 9 9 9 9 9 10 10 10 10 10 9 9 9 9 10 10 9 9 8 8 7 7 7 8 8 9 9 9 9 9 9 10 10 10 10 10 10 9 9 8 7 7 7 6 6 5 4 4 4 3 3 3 3 2 2 3 3 3 3 4 3 4 4 4 4 5 6 6 6 5 4 4 4 4 3 3 3 3 3 4 4 4 3 3 3 2 1 1 1 1 2 3 3
6 6 7 7 8 8 9 9 9 9 9 9 9 9 9 9 9 9 9 9 9 9 9 9 9 10 9 8 8 7 7 7 7 8 8 9 9 9 9 9 9 9 9 9 9 9 9 8 7 6 5 4 4 3 3 3 2 2 1 1 1 1 1 1 2 3 3 3 3 4 4 4 4 4 4 5 6 7 6 6 5 5 4 4 4 4 3 3 3 3 4 4 4 3 3 2 1 0 1 2 2 3 3
6 6 7 7 8 8 8 8 8 8 8 8 8 8 8 8 9 9 8 8 8 8 9 9 9 9 8 8 8 7 7 7 8 8 8 8 8 9 8 8 8 8 8 7 7 7 7 7 6 4 3 3 2 2 2 2 2 2 1 0 0 1 1 2 3 3 3 4 4 4 3 3 3 4 4 5 6 6 6 6 6 6 5 5 5 4 3 3 3 3 3 3 3 3 2 1 1 1 2 2 3 3 3
6 6 6 6 6 7 7 8 8 8 7 7 7 7 8 8 8 8 7 7 8 8 8 8 8 8 8 8 8 8 7 7 7 8 8 8 8 8 8 7 7 7 6 6 6 6 6 5 5 4 3 3 3 3 3 3 3 3 2 1 1 1 2 3 4 4 4 4 4 4 4 3 3 4 5 5 6 7 7 7 6 6 5 4 4 3 3 2 3 3 3 2 2 2 2 2 1 2 2 2 3 3 3
5 5 5 6 6 7 7 7 7 7 6 6 7 7 7 7 7 7 7 7 7 8 7 7 7 7 7 8 8 8 7 7 7 7 7 7 7 7 7 6 6 5 5 5 5 5 5 4 4 3 3 4 4 4 4 4 4 3 2 2 2 2 3 4 5 5 5 4 4 5 5 4 4 4 5 6 7 7 7 6 6 5 4 3 3 3 2 2 2 2 2 1 1 2 2 2 2 2 2 2 2 2 3
4 5 5 6 6 6 6 6 5 5 5 5 5 6 6 6 6 7 7 7 7 7 7 7 6 7 7 7 7 7 7 7 7 7 7 7 6 6 6 5 5 4 4 4 4 3 4 4 4 4 4 5 5 5 5 4 4 3 2 3 3 4 4 5 5 6 5 5 5 5 6 5 4 4 5 6 7 6 6 5 5 4 3 2 2 2 2 2 2 1 1 1 2 3 2 2 2 2 2 2 2 2 2
5 5 5 5 5 5 4 4 4 4 4 4 4 5 5 6 6 6 6 6 7 7 6 6 6 6 6 6 6 6 6 7 7 7 6 6 6 5 5 4 3 3 3 3 3 3 3 3 4 4 5 5 5 5 5 4 3 3 3 3 4 5 5 5 5 6 6 6 6 6 7 6 6 5 5 6 5 5 5 4 4 3 2 2 2 2 2 1 1 1 1 1 2 3 3 2 2 2 1 1 1 1 2
5 4 4 4 3 4 3 3 3 3 3 3 4 5 5 5 5 5 6 5 5 5 5 5 5 5 6 6 6 6 6 7 7 7 6 6 5 4 3 3 2 2 2 3 3 3 3 4 4 5 5 5 5 5 4 4 3 3 4 4 5 5 5 5 5 6 6 6 7 7 7 7 6 5 5 5 4 3 4 3 3 2 1 1 1 1 1 1 0 1 1 2 2 3 3 2 2 2 1 0 1 1 2
4 3 3 3 3 2 2 2 2 2 3 3 4 5 5 5 5 5 5 5 4 4 4 4 4 5 6 6 6 5 6 6 7 6 6 5 5 4 3 2 2 3 3 3 3 3 4 4 5 5 5 5 4 4 4 3 4 4 5 5 5 5 4 5 5 5 6 6 7 7 7 7 6 5 5 5 4 3 3 3 2 1 1 1 1 2 2 1 1 1 2 2 2 3 3 2 2 2 1 0 1 2 2
3 2 2 1 1 1 1 1 2 2 3 4 4 4 4 5 5 5 5 4 4 4 4 4 4 5 6 6 6 5 6 6 6 6 5 5 4 4 3 3 3 3 4 4 4 4 5 5 5 5 5 4 4 4 3 4 4 4 5 5 5 5 5 5 6 5 6 6 7 7 7 6 5 5 5 5 5 4 3 3 2 2 1 1 2 2 2 1 2 2 2 2 2 2 2 2 2 2 2 1 0 1 2
1 0 0 0 1 1 1 1 2 3 3 4 4 4 4 5 5 5 4 4 3 4 4 4 5 6 6 6 5 5 6 6 5 5 5 4 4 4 3 4 4 5 5 5 5 5 6 5 5 5 5 4 4 4 3 4 4 4 4 4 4 5 5 6 7 7 7 6 6 6 6 5 5 4 4 5 5 5 4 3 2 2 2 2 2 2 2 2 3 3 3 2 2 2 2 2 1 1 1 1 1 1 2
1 1 1 1 0 0 1 1 2 3 3 3 4 4 4 4 4 4 3 3 3 3 3 4 5 6 6 5 5 5 5 5 5 4 4 4 4 4 4 5 5 6 6 6 7 6 6 6 5 4 4 4 4 4 4 4 4 4 4 4 4 5 6 6 7 7 6 5 5 5 5 5 5 5 4 4 4 4 5 4 3 2 2 2 2 2 1 3 4 4 4 3 3 2 2 1 1 1 1 1 1 1 1
2 2 1 1 0 0 1 2 3 3 3 3 3 3 4 4 3 3 3 2 2 3 3 4 4 5 5 4 4 4 4 4 4 4 4 4 4 4 5 5 6 7 7 7 7 7 6 6 5 4 3 3 3 4 4 4 4 4 4 4 5 5 6 6 6 5 5 4 4 4 4 5 6 5 5 4 4 4 4 4 4 3 3 3 3 2 2 3 4 4 4 4 4 3 2 2 1 1 1 1 1 1 2
3 2 1 0 1 1 2 2 2 2 2 3 3 3 3 3 3 2 2 3 3 3 3 3 4 4 4 3 3 4 4 4 4 4 3 3 4 4 5 5 6 7 6 7 7 7 6 6 5 4 3 4 4 4 4 4 4 5 5 5 6 6 6 5 5 4 4 4 3 4 5 5 6 6 5 5 4 4 4 4 4 3 3 3 3 3 3 4 4 5 5 5 5 4 3 3 2 2 2 2 2 2 2
2 1 1 0 1 1 1 1 1 1 2 2 3 3 3 2 2 2 2 3 3 2 2 3 3 3 3 3 3 4 4 3 3 3 3 3 4 4 5 5 6 6 6 7 7 7 6 6 5 4 4 4 4 4 4 5 5 6 6 6 6 6 5 5 4 4 4 3 4 5 5 5 6 5 5 4 4 4 4 4 3 3 3 4 4 4 4 5 5 6 6 6 6 5 3 2 2 2 2 2 2 2 3
2 2 2 2 2 2 2 1 1 1 1 2 2 2 1 1 0 1 2 2 2 1 2 2 2 2 2 3 4 4 3 3 3 3 3 3 4 4 4 5 6 6 6 7 7 7 7 6 6 5 5 5 5 4 5 5 6 6 6 6 5 5 5 5 4 3 3 4 4 5 5 5 5 5 4 4 4 4 4 4 4 4 3 4 4 5 5 6 7 7 8 8 7 7 4 3 2 2 2 2 2 3 3
3 3 3 3 2 2 2 2 1 1 1 1 0 0 1 1 1 2 1 0 1 1 1 2 2 2 2 3 3 3 3 3 3 3 4 4 4 4 4 5 5 6 6 7 7 7 7 7 7 6 5 5 5 5 5 5 5 5 5 5 5 5 5 5 4 4 4 4 4 4 4 3 4 4 4 4 3 3 3 3 4 4 4 5 5 6 6 7 8 9 9 9 9 7 5 3 2 2 2 2 3 3 4
3 3 3 3 2 2 2 2 1 1 1 1 1 2 2 1 1 2 1 2 2 2 2 1 1 2 2 2 2 3 3 3 3 3 4 4 4 4 4 5 5 6 6 6 6 7 7 8 7 7 5 5 4 4 4 3 4 4 4 5 5 5 5 5 5 4 4 4 4 4 3 3 3 3 4 3 3 2 3 3 4 5 5 5 6 7 7 8 9 10 10 10 10 8 5 3 2 2 2 2 3 4 4
3 2 2 2 2 2 1 1 1 1 1 2 2 2 1 1 1 1 2 2 2 1 1 1 2 2 2 2 2 2 3 3 3 3 3 3 4 4 4 5 5 6 6 6 6 7 8 8 8 7 5 4 3 3 2 3 3 4 4 5 6 6 5 5 5 4 4 4 3 3 3 3 3 3 3 3 3 3 3 3 4 4 5 6 8 10 10 10 10 11 11 11 11 9 5 3 1 1 1 2 2 3 4
3 3 3 2 2 1 1 0 1 2 2 2 2 2 1 0 1 1 1 1 1 1 1 1 1 2 1 2 2 2 2 3 4 4 4 3 3 4 4 4 5 5 5 6 6 7 7 8 7 6 5 3 2 2 2 2 3 3 4 5 6 5 5 4 4 4 3 3 3 2 2 2 2 3 3 3 3 3 3 4 4 4 5 7 10 12 12 12 12 12 11 11 11 9 5 2 1 1 1 2 3 4 4
Wind_Direction
64 63 59 56 53 53 57 60 59 55 50 47 44 41 39 38 37 34 32 32 35 41 49 46 40 29 26 27 34 41 28 27 38 54 42 32 25 21 23 17 11 12 356 323 304 313 327 327 325 322 321 324 326 325 308 293 281 276 266 258 251 246 261 311 334 334 340 345 345 333 312 297 284 276 266 263 261 262 260 257 252 247 246 247 247 247 248 249 251 252 262 273 276 274 270 273 279 288 288 277 261 249 249
61 63 61 59 57 56 57 57 57 55 51 47 43 39 37 36 33 29 28 27 29 35 41 38 33 24 25 26 28 30 21 17 22 38 38 36 30 24 15 3 351 341 295 290 306 333 335 331 322 307 295 292 294 294 280 272 264 256 247 242 240 236 272 295 287 269 257 249 246 251 251 252 251 249 247 248 250 255 255 249 241 234 231 230 231 233 232 234 237 232 219 239 258 274 257 249 251 267 280 280 271 258 253
56 59 59 58 57 57 56 55 54 52 49 45 40 35 35 33 30 24 22 24 29 35 36 32 26 21 21 15 11 11 15 21 26 28 43 54 64 82 73 280 267 251 267 298 324 339 333 325 310 287 270 262 264 265 262 260 253 224 160 91 51 44 159 197 202 203 201 201 202 208 212 223 236 240 239 237 237 243 241 236 228 220 219 218 216 209 200 205 211 207 190 186 196 251 249 228 216 226 259 270 274 277 276
55 58 58 59 59 59 58 56 54 51 50 45 37 31 32 29 22 12 11 19 29 35 35 33 32 31 24 11 359 359 15 31 41 39 47 50 52 70 164 222 240 234 256 282 292 295 301 299 291 276 264 251 214 160 150 98 65 63 60 45 23 352 300 208 181 173 177 179 183 190 202 217 225 226 225 223 224 229 225 217 205 193 187 186 187 186 187 190 193 192 190 184 180 181 270 264 238 204 240 258 267 276 280
56 58 59 60 60 61 60 57 54 51 51 47 38 29 27 19 8 354 3 20 33 40 39 37 35 34 28 19 7 4 20 33 41 42 41 38 35 31 35 352 310 285 256 267 276 264 272 273 269 262 270 341 52 79 86 90 94 99 103 95 300 283 268 242 190 168 172 175 179 188 203 211 213 212 212 214 217 219 208 195 181 173 175 182 189 184 180 189 198 192 194 190 182 168 242 289 292 270 260 262 267 270 276
57 58 60 60 60 59 57 54 50 47 44 39 32 23 19 9 359 353 19 35 41 43 38 34 33 35 36 37 37 36 34 37 42 46 41 35 29 22 24 17 358 334 344 351 346 330 297 268 262 269 345 28 33 39 42 43 55 133 137 246 270 263 258 244 209 186 183 182 184 192 200 204 206 206 209 213 213 200 189 187 187 185 198 218 232 185 179 229 247 231 224 210 196 171 184 279 305 312 306 298 292 289 287
60 59 59 58 57 55 54 51 47 43 38 31 21 12 13 12 12 20 33 38 39 36 31 33 39 43 40 40 40 39 37 39 42 45 40 34 26 18 21 24 26 18 29 49 62 57 346 327 359 20 25 27 27 24 24 9 345 331 350 351 335 304 284 278 269 246 217 201 194 197 204 208 211 214 219 220 215 200 196 193 191 188 189 182 143 125 329 318 322 334 338 337 337 335 22 104 352 322 320 314 307 304 301
61 60 57 55 53 54 55 53 49 42 35 27 17 12 12 17 22 26 32 37 40 40 42 46 49 48 45 43 41 37 35 36 37 37 33 28 24 19 19 18 19 25 34 43 49 49 14 9 14 21 17 15 13 11 7 352 338 339 343 335 322 310 298 297 300 307 306 299 279 269 266 264 262 254 249 238 227 214 201 181 152 126 97 90 88 76 11 335 319 324 311 313 329 350 357 52 81 341 319 310 303 300 297
63 63 60 58 56 57 60 59 56 52 45 36 29 34 38 39 39 42 48 56 63 67 66 60 53 49 46 43 39 35 33 33 33 33 32 30 28 22 16 11 8 8 10 10 7 4 8 11 17 22 11 0 354 356 354 351 348 345 338 339 340 338 322 318 321 332 337 338 335 326 311 303 298 293 284 299 20 45 49 45 42 45 52 58 59 53 31 349 285 269 269 267 52 34 359 351 335 179 298 298 295 296 300
70 69 68 66 62 61 62 64 65 69 73 72 67 62 62 62 64 70 72 75 76 73 63 56 51 48 43 40 36 33 30 29 29 32 33 34 32 28 21 17 15 13 9 7 5 360 354 357 8 17 4 351 343 349 357 355 346 334 336 343 347 350 345 338 335 337 342 341 336 330 318 315 331 5 31 43 47 46 43 40 37 38 44 50 53 53 47 34 17 5 359 0 8 56 1 330 296 206 203 237 274 296 306
75 72 72 70 67 64 65 67 69 72 74 72 68 64 63 64 66 69 69 70 69 63 59 57 54 51 46 40 35 30 28 26 25 28 34 36 34 35 34 34 33 31 19 9 360 351 338 335 342 357 338 329 329 339 346 335 317 317 335 336 333 333 339 342 344 350 359 4 13 27 32 39 42 40 42 47 51 52 51 48 45 43 48 54 57 54 46 33 20 7 359 350 336 248 63 358 327 237 182 172 188 317 304
74 73 73 74 73 70 69 69 71 72 72 69 64 60 60 59 60 60 59 58 56 52 51 53 53 53 49 40 29 24 26 25 25 29 38 39 35 36 45 50 51 56 55 32 356 345 328 313 300 295 288 284 291 317 306 294 302 342 345 338 332 336 352 6 19 25 26 33 42 48 46 48 51 50 49 52 57 61 61 59 56 51 53 57 59 52 42 26 3 337 340 331 334 16 33 18 339 245 161 134 61 329 291
76 76 76 78 79 79 75 75 76 77 79 80 76 66 65 64 61 56 54 49 41 29 26 26 25 25 28 25 18 8 13 20 26 31 46 51 46 37 45 46 45 46 71 126 179 286 304 297 292 295 295 289 284 304 320 335 348 356 349 346 346 349 357 15 32 44 41 45 49 54 54 57 60 61 59 63 68 73 72 69 67 68 71 73 73 66 48 341 288 291 320 345 9 36 33 38 168 182 145 125 91 302 270
81 81 80 81 84 86 85 82 79 80 86 87 83 69 66 65 63 59 58 53 42 20 12 5 360 355 2 4 358 346 354 11 27 30 46 58 67 57 50 41 26 4 339 292 224 204 245 267 279 285 287 292 302 319 343 351 353 346 343 344 345 339 345 2 25 49 54 55 57 62 67 74 79 83 79 80 85 88 85 84 86 109 110 108 110 119 159 224 258 334 348 355 5 21 27 35 92 169 153 148 152 181 211
86 86 86 87 89 92 92 90 87 86 86 82 76 72 70 68 65 65 69 72 70 57 36 20 10 6 1 353 345 338 348 6 24 29 36 50 67 74 70 60 32 3 331 310 274 229 235 246 258 268 276 296 318 330 348 351 346 333 335 336 334 328 333 342 2 37 61 70 76 87 97 102 105 108 110 108 104 98 97 99 110 153 141 136 143 165 190 197 189 52 10 0 357 359 6 3 337 258 184 170 165 163 165
94 95 96 96 97 98 101 101 97 78 68 63 62 63 65 61 57 59 65 69 70 68 58 47 37 28 11 357 346 341 348 2 16 20 23 32 47 57 56 41 18 4 327 310 295 271 263 263 270 281 302 320 328 329 343 343 334 322 323 324 325 325 329 331 337 0 31 66 108 140 138 134 131 130 132 125 119 109 112 120 142 175 160 152 157 196 221 235 267 39 25 4 349 338 331 305 278 267 230 192 171 157 158
99 101 104 105 106 107 107 98 83 59 44 28 14 11 25 29 29 35 44 49 50 52 49 44 39 32 18 3 353 348 354 1 9 11 9 13 21 30 21 4 346 335 316 303 297 296 295 296 302 317 324 322 317 314 324 327 323 314 315 320 325 327 325 325 325 329 322 309 279 241 210 170 151 143 139 132 125 123 132 150 170 183 162 155 161 219 328 336 334 334 337 324 305 282 259 246 249 274 262 221 177 158 169
97 101 104 106 106 104 88 76 66 48 13 354 352 3 21 27 28 29 32 35 38 42 42 39 35 28 18 8 4 4 4 5 8 13 6 2 3 13 5 347 329 317 305 294 289 288 294 304 315 327 321 313 309 309 320 323 321 315 317 322 323 317 318 318 315 309 304 297 288 274 270 247 192 152 136 126 123 134 156 176 188 183 76 42 9 357 349 339 331 326 319 310 301 298 308 316 306 298 284 263 212 172 176
91 93 81 75 72 66 69 66 56 23 3 359 4 17 30 30 24 18 19 24 29 32 36 35 31 21 14 10 9 10 8 8 11 16 8 2 359 4 359 343 327 315 300 285 275 273 278 292 308 316 310 306 307 314 322 324 322 318 316 315 312 311 315 311 307 303 302 300 296 292 300 306 318 13 53 66 78 91 80 11 4 10 10 3 353 345 340 333 326 319 314 312 315 330 342 339 324 302 291 282 254 188 180
99 90 71 57 47 45 60 59 46 13 7 6 12 21 25 20 12 7 11 17 21 23 29 32 29 20 13 9 8 8 7 9 13 16 10 5 2 1 356 349 336 321 299 280 266 261 268 278 289 296 296 296 298 307 314 315 314 312 308 309 314 317 312 309 308 311 311 312 314 317 327 335 348 9 12 14 15 17 15 11 9 6 357 350 344 342 340 337 332 326 326 328 333 342 346 344 339 336 345 349 345 330 8
140 129 118 107 82 58 66 62 41 12 11 13 16 19 17 12 8 7 11 15 18 20 26 31 31 23 13 8 7 8 8 12 14 13 8 6 4 1 356 350 342 328 307 289 274 269 275 278 280 284 284 283 283 289 299 304 307 308 309 316 322 316 311 318 328 333 333 333 333 334 338 346 359 18 15 10 7 8 8 8 7 3 353 349 349 351 349 348 346 342 340 342 345 350 358 6 13 18 18 11 1 358 17
164 160 154 151 142 117 100 76 38 21 21 20 19 20 17 14 13 14 16 19 21 23 27 33 34 26 15 10 9 11 12 15 15 11 7 5 4 359 354 349 342 333 320 309 299 295 292 288 287 286 285 280 276 275 286 297 304 309 313 315 316 309 318 333 347 349 355 351 344 337 337 342 358 23 23 15 7 3 3 5 9 13 11 10 9 8 5 4 2 360 358 358 360 1 8 17 23 26 24 21 20 25 32
175 174 166 157 141 111 75 41 28 28 29 28 28 28 28 26 26 27 27 29 31 31 31 35 35 27 17 13 13 15 16 16 15 11 9 7 4 359 356 352 348 341 334 327 320 316 310 307 303 299 296 293 292 292 293 300 308 315 313 313 313 317 329 339 346 349 360 359 348 336 332 336 350 17 27 22 13 3 2 8 19 32 34 34 32 30 28 26 25 23 22 18 14 10 12 17 21 24 24 26 31 37 38
178 164 103 58 39 28 20 21 26 34 39 41 42 42 42 42 42 41 41 42 41 38 34 34 32 25 17 15 16 17 17 16 15 14 13 11 8 5 3 1 358 353 348 343 340 338 333 329 324 317 313 314 316 319 320 321 323 327 322 322 327 333 339 340 341 344 351 353 349 338 335 340 351 7 21 25 21 11 6 11 23 37 42 42 41 42 43 44 44 44 45 39 29 20 16 15 13 12 14 21 27 35 33
38 23 22 27 34 37 36 40 46 52 54 55 55 55 55 53 51 48 47 45 42 37 33 32 30 25 18 15 16 19 18 17 17 19 19 17 14 12 11 10 8 5 2 360 357 352 347 341 335 328 325 325 327 329 327 326 329 337 344 350 356 359 353 348 343 342 344 349 360 12 11 9 10 14 22 25 25 19 12 12 18 30 36 38 39 41 44 47 50 53 57 56 48 35 24 17 11 6 8 14 21 27 25
30 42 53 64 70 72 69 67 66 66 65 64 62 60 56 53 48 44 43 41 38 32 30 29 29 26 20 18 18 21 21 21 22 23 23 21 19 18 18 16 14 11 9 6 2 357 350 344 339 333 330 328 327 327 323 323 329 349 6 14 18 19 12 1 351 347 354 2 9 16 23 26 27 27 28 28 27 22 15 11 12 19 26 30 33 35 38 42 47 51 57 60 58 50 37 26 18 9 5 11 20 26 25
75 79 82 83 82 81 78 75 73 71 67 62 58 53 50 45 42 39 39 37 33 27 27 28 28 27 23 22 23 24 24 24 24 24 24 23 21 21 21 18 16 12 9 7 4 1 356 352 348 343 339 337 334 332 330 333 347 12 22 27 28 29 27 20 13 10 17 16 14 12 21 28 32 34 33 33 29 22 14 9 8 12 17 22 25 27 29 33 37 41 48 52 51 47 39 31 21 10 6 13 23 28 28
87 85 83 80 78 76 74 71 67 62 57 53 49 47 45 41 38 36 37 34 31 26 26 27 27 26 26 26 27 27 26 25 24 24 24 24 22 21 19 16 14 11 9 9 8 7 5 2 357 350 345 342 340 339 342 352 9 28 36 42 47 51 50 47 46 44 40 30 22 15 21 28 35 39 40 38 34 23 14 10 10 13 17 20 21 22 23 26 30 33 40 45 47 45 40 32 22 9 9 16 23 27 27
85 80 75 71 69 67 64 62 58 54 50 47 45 43 41 38 35 34 35 34 32 30 30 30 29 28 28 29 28 26 25 24 23 22 23 22 21 20 17 13 11 10 10 11 10 8 6 3 359 353 347 344 342 340 342 351 7 30 45 77 96 87 71 65 63 64 64 55 42 30 31 35 41 47 49 48 43 31 20 16 16 19 21 21 21 21 22 24 27 29 36 43 46 48 44 36 24 13 15 18 21 24 24
78 74 70 66 63 60 58 56 54 52 50 47 44 41 39 36 33 31 33 34 34 34 35 35 34 32 31 29 26 23 22 22 22 21 21 20 19 17 14 12 10 9 10 10 9 7 4 2 359 355 351 348 344 341 342 342 342 346 318 241 174 105 87 77 73 73 79 79 70 56 48 46 48 51 53 53 50 41 30 24 22 22 21 20 20 20 21 22 24 25 33 39 43 47 45 37 26 21 24 24 23 24 24
70 68 64 61 59 56 55 53 51 50 48 46 43 41 38 35 33 32 34 35 36 36 37 38 38 35 32 29 25 21 20 21 20 19 19 19 19 17 15 12 11 10 9 9 8 7 4 2 360 357 353 350 347 346 346 343 339 333 319 297 262 103 77 67 62 61 66 69 67 61 55 50 47 46 46 46 45 42 35 28 23 20 18 17 17 18 18 18 19 22 29 33 36 40 43 37 31 31 34 33 30 28 24
64 62 60 58 56 54 52 50 47 44 42 41 39 37 36 35 34 34 36 36 36 36 36 37 37 35 31 27 23 21 20 19 18 17 17 18 18 17 16 14 13 12 11 10 8 7 5 2 359 357 353 352 350 352 351 349 345 340 333 327 326 20 40 42 42 41 38 43 53 60 58 55 51 47 44 43 41 39 34 27 22 17 13 13 15 18 18 19 20 22 23 23 23 26 34 34 35 39 42 41 37 32 25
62 61 59 56 54 52 50 47 45 42 40 38 36 35 35 35 36 37 38 38 37 35 35 33 32 29 25 22 21 20 19 18 17 17 16 17 17 18 17 16 14 13 12 10 8 6 4 2 359 357 355 354 355 358 358 356 355 354 351 351 358 21 28 29 27 27 25 29 39 54 58 59 57 53 48 43 38 33 26 21 16 12 6 4 8 17 26 30 31 31 26 17 10 15 29 33 36 43 47 47 41 32 23
62 61 58 55 52 50 48 46 44 42 40 39 38 37 37 38 38 39 39 38 36 34 33 31 27 23 20 19 18 18 17 17 17 17 17 17 17 20 18 17 15 14 11 9 7 6 5 3 1 359 358 360 2 3 4 5 7 9 8 9 13 23 27 30 32 32 30 34 40 49 54 55 54 49 44 39 32 24 16 11 5 357 346 339 343 5 36 48 50 48 32 12 6 20 32 34 37 44 51 51 44 33 21
61 59 57 54 51 48 47 45 44 43 42 41 41 41 40 40 40 41 39 37 35 33 31 28 25 22 18 17 16 16 15 15 16 18 17 18 19 20 19 18 16 13 10 8 7 7 6 5 5 3 6 9 11 10 11 14 17 19 17 16 17 23 28 33 36 37 38 41 44 47 48 47 45 42 38 33 26 18 9 359 347 323 305 297 301 339 54 70 79 80 63 33 20 32 39 37 37 44 55 54 47 32 22
60 57 56 53 50 47 44 42 41 41 41 41 41 41 41 41 40 40 38 35 32 30 27 24 21 20 18 16 15 15 14 15 17 18 18 19 20 19 18 17 14 11 10 10 11 12 11 11 12 12 16 19 20 18 18 21 23 24 21 19 20 26 30 32 35 38 42 44 46 45 43 40 37 33 28 21 12 358 335 307 279 254 248 243 236 208 158 138 129 126 115 91 40 7 18 29 33 41 54 53 45 31 23
60 57 55 53 50 46 43 41 40 40 42 42 42 42 41 39 38 37 35 32 29 26 23 20 18 17 16 16 15 14 15 16 17 18 19 19 19 19 17 15 13 11 12 14 17 18 18 19 21 22 26 27 26 24 24 25 26 27 24 23 25 27 29 29 31 35 40 43 43 40 36 33 28 21 6 339 304 285 276 264 251 240 235 226 215 204 188 173 158 151 142 142 167 274 278 296 1 40 50 47 38 26 24
62 59 57 54 51 47 45 43 42 42 44 45 44 43 41 39 37 35 33 30 26 22 19 17 16 16 15 15 14 15 15 16 17 19 19 19 18 17 15 14 13 14 17 21 23 24 25 27 28 29 32 32 31 29 28 27 27 29 28 28 28 28 27 27 28 31 36 36 33 28 21 11 350 318 291 281 280 283 285 281 267 249 238 228 219 213 198 182 170 165 159 162 178 223 246 248 232 141 70 51 36 23 20
64 62 59 56 53 50 48 47 46 46 47 47 46 44 41 39 36 34 31 27 23 19 16 14 14 15 14 13 12 14 14 15 16 18 19 18 18 16 15 14 15 19 24 28 30 30 31 32 33 32 33 34 33 32 30 29 28 29 30 32 33 34 32 28 23 20 21 19 12 1 344 318 294 280 283 291 300 306 306 302 289 266 248 237 229 224 210 194 183 179 174 174 180 198 221 230 225 183 110 65 41 28 20
64 62 59 56 53 49 48 48 48 48 48 47 46 43 40 37 34 31 28 24 20 17 15 14 15 16 14 12 11 13 14 14 14 16 17 17 17 16 15 16 19 25 30 33 35 35 35 35 35 33 33 32 32 32 31 29 28 28 30 34 39 44 40 26 8 357 350 345 339 328 311 296 287 284 295 306 313 313 308 302 291 275 256 244 236 230 221 209 199 190 184 182 183 189 204 216 220 184 91 57 40 30 19
62 59 56 52 49 48 48 49 50 51 49 47 45 42 39 36 33 28 25 21 17 15 14 16 17 17 14 12 11 11 11 12 13 14 15 16 16 16 17 20 25 30 34 36 37 37 37 36 34 31 29 27 26 25 25 23 20 14 20 31 43 39 17 349 334 329 321 317 312 305 296 290 287 290 299 306 308 305 300 293 284 272 256 244 237 230 227 223 218 207 195 188 184 184 188 195 201 91 53 41 32 23 15
59 54 51 49 48 49 51 53 54 53 50 47 44 41 38 34 30 26 22 19 16 15 17 18 19 17 14 12 11 10 8 9 11 12 13 15 18 19 19 23 29 34 35 37 36 35 34 32 29 25 19 13 5 356 353 352 347 336 327 310 303 343 328 316 308 305 301 299 298 295 288 286 285 288 292 295 295 293 288 283 277 269 256 245 234 226 225 229 233 232 216 199 182 167 159 148 112 58 46 35 26 17 10
55 52 50 49 49 50 52 53 54 52 50 46 43 40 36 32 28 23 20 18 18 19 20 21 20 18 14 11 10 8 7 8 9 11 11 15 19 23 24 27 31 35 35 34 32 30 26 22 17 10 0 347 334 326 324 323 323 319 310 300 294 312 307 301 296 294 292 291 291 291 287 284 281 280 280 281 282 281 279 277 276 273 263 250 237 227 224 228 236 240 231 208 165 130 119 107 88 64 49 37 24 13 5
55 52 49 48 48 50 52 53 53 51 47 45 42 40 35 30 25 21 19 19 20 22 22 21 19 17 14 11 8 7 7 7 8 9 11 16 22 28 29 30 33 34 31 28 24 20 13 5 356 346 335 326 320 316 317 317 316 317 312 304 299 295 288 285 285 288 288 287 285 286 285 283 277 273 272 274 275 277 280 283 285 286 276 262 246 237 232 232 236 239 231 189 121 105 100 92 80 68 54 39 24 10 360
54 50 46 45 46 49 51 52 51 48 45 42 39 38 34 29 24 20 20 21 23 24 21 17 14 12 12 11 9 7 7 7 8 9 12 18 24 32 33 32 31 28 22 16 10 3 354 344 334 325 321 319 316 315 316 316 314 307 298 292 288 285 280 278 279 281 283 284 284 284 284 282 277 271 272 274 278 283 290 293 294 291 282 265 249 244 242 242 243 239 211 133 112 107 101 92 80 68 53 36 16 0 352
50 48 44 43 44 47 49 48 46 42 39 36 35 34 30 26 24 23 24 25 26 25 19 13 6 4 8 11 11 9 9 9 10 10 13 18 25 33 33 29 22 13 4 353 343 337 331 323 317 314 317 318 318 318 318 314 305 291 283 279 278 278 280 280 279 279 282 284 287 287 287 285 282 279 278 278 281 289 292 291 286 279 266 255 250 253 258 256 248 208 134 121 120 115 109 104 96 81 60 30 354 338 336
48 48 44 41 41 43 45 44 41 37 33 31 31 30 25 23 23 26 28 29 28 25 17 8 1 359 7 11 11 9 10 12 12 11 12 16 23 29 24 13 357 343 332 324 321 319 314 309 308 311 316 318 319 320 317 308 296 285 280 279 278 280 282 282 282 282 286 289 290 289 288 287 287 288 287 284 284 287 286 283 277 264 252 256 270 282 280 275 234 115 125 132 132 124 120 121 121 116 104 33 327 327 329
43 46 41 38 38 43 43 42 39 35 31 31 29 27 23 21 21 24 26 26 24 20 11 2 357 359 8 10 9 6 12 14 13 9 9 12 16 20 7 345 324 315 312 311 309 309 307 308 310 314 317 318 319 318 310 300 292 288 286 285 285 286 285 287 289 292 295 295 294 291 290 290 291 294 295 295 296 294 291 290 289 285 277 283 284 281 272 249 167 133 143 145 143 135 137 140 145 146 149 163 320 328 328
35 43 47 48 49 55 51 45 38 33 32 32 29 25 22 21 21 22 21 19 14 9 1 356 355 1 7 7 5 6 14 15 13 6 5 7 7 5 345 321 309 311 312 309 306 303 305 310 315 319 321 320 318 312 304 296 292 289 288 289 290 292 294 298 302 305 305 303 301 298 296 294 294 296 302 306 309 311 306 306 311 317 310 289 275 267 248 210 174 161 164 164 160 156 156 158 163 167 165 169 268 321 319
8 10 135 138 121 95 76 55 42 36 35 33 28 24 22 22 22 20 16 14 10 5 356 353 356 4 4 2 2 7 14 15 11 3 1 1 358 350 331 319 316 320 318 313 308 304 306 311 317 323 323 320 313 307 301 297 294 291 291 293 299 305 309 311 312 312 310 309 308 306 303 302 302 304 310 313 314 315 315 319 325 330 315 296 281 267 226 182 167 172 172 172 171 171 166 165 172 183 183 186 208 278 295
280 259 236 208 161 124 79 57 46 39 36 32 29 27 25 23 20 16 10 7 6 4 355 355 359 5 0 357 357 8 13 13 8 2 359 355 348 340 331 328 327 328 324 319 312 306 306 311 318 322 319 314 310 307 306 304 300 297 300 307 314 318 316 316 315 314 313 312 311 310 313 317 321 323 322 320 316 315 318 325 331 330 314 300 286 264 177 155 159 171 175 176 174 170 163 164 183 221 216 214 221 246 261
260 254 248 233 152 65 54 49 45 39 35 32 31 31 27 23 17 10 5 4 5 4 357 358 1 2 353 348 351 8 14 11 4 358 356 350 343 337 335 334 333 332 329 323 316 309 309 311 315 315 315 314 312 310 309 307 306 309 318 323 324 321 317 316 315 315 314 312 311 317 328 333 335 334 332 329 324 321 324 326 327 321 309 296 282 250 172 160 166 177 183 183 180 172 169 173 189 225 235 235 236 246 248
252 253 257 299 48 50 53 52 49 43 36 33 32 32 28 21 12 2 7 13 12 3 355 356 358 353 339 338 351 11 13 8 360 353 348 344 341 338 338 336 334 333 329 324 319 316 313 311 310 311 315 313 310 308 308 311 316 323 327 326 323 319 317 318 318 317 313 314 321 334 339 340 340 339 339 338 337 337 332 327 322 316 304 291 276 245 201 189 191 195 198 197 193 186 180 180 187 204 224 233 240 242 242
246 244 233 135 98 90 82 76 67 54 41 35 31 29 25 17 6 3 19 20 14 354 348 348 346 332 327 341 0 12 7 1 354 348 341 336 336 339 337 334 331 329 327 326 325 322 315 311 309 310 310 307 305 308 315 323 328 330 327 324 323 322 323 322 320 314 315 325 337 342 341 342 342 343 344 348 352 351 340 330 321 313 303 289 275 252 226 217 216 217 216 212 208 199 192 186 187 194 209 223 233 237 235
235 220 202 185 172 158 147 132 102 65 48 40 31 18 3 354 25 42 35 25 359 326 330 326 320 311 334 355 5 5 359 353 347 344 336 332 331 334 333 329 327 327 329 330 329 325 318 314 310 306 303 305 309 318 328 332 332 329 327 327 327 327 323 317 311 309 321 332 337 336 340 342 344 341 347 356 1 354 341 330 322 315 305 292 279 263 245 238 236 236 235 232 225 215 205 195 193 197 206 218 229 235 233
222 217 212 206 199 187 174 155 130 101 84 69 46 315 257 215 149 95 78 49 249 248 265 283 299 326 353 2 1 354 350 348 345 341 331 326 324 327 324 323 324 327 331 332 331 327 321 314 308 304 307 314 323 332 336 335 333 332 332 330 327 322 314 310 309 314 325 328 328 328 336 340 341 340 349 356 359 350 335 324 317 315 311 303 294 282 265 255 252 250 249 247 242 230 218 209 205 210 215 222 230 236 235
220 220 222 220 216 207 194 177 162 155 184 215 229 235 233 207 163 138 168 206 223 225 239 272 323 354 355 354 353 354 346 343 339 336 326 322 319 319 316 318 322 328 332 333 332 328 320 313 308 307 314 322 330 334 335 338 340 339 331 324 318 312 308 309 312 318 322 322 321 323 329 333 336 341 346 348 345 335 323 319 319 321 320 316 311 306 291 279 271 266 262 259 255 247 237 225 218 226 230 235 240 243 241
226 223 221 218 215 214 211 205 208 217 238 245 246 246 249 247 196 175 198 218 236 252 279 332 351 352 343 342 346 354 344 337 332 327 321 318 316 313 313 317 324 329 331 332 331 327 319 314 311 311 317 321 325 326 334 342 342 332 320 314 310 306 305 307 309 310 309 306 304 306 312 322 331 336 337 335 330 325 324 327 330 331 328 326 325 324 316 307 298 289 282 276 269 260 254 243 232 248 258 263 264 261 256
225 219 212 204 195 182 173 202 246 245 243 246 248 249 256 296 287 238 219 225 277 307 315 334 343 331 326 333 341 341 337 331 325 317 314 313 311 309 314 319 324 326 329 330 329 325 318 314 312 311 312 311 310 316 330 330 322 312 306 304 302 301 302 303 303 297 287 275 268 266 278 305 324 329 329 329 328 328 335 343 344 340 333 332 334 335 332 329 325 318 309 298 287 275 271 270 302 313 307 298 288 283 281